{"data":{"norad_id":56506,"epoch":"2026-05-25T05:22:09.331104Z","epoch_age_seconds":48974,"freshness":"FRESH","line1":"1 56506U 23065D   26145.22371911  .00003084  00000+0  12162-3 0  9991","line2":"2 56506  43.0014 129.0308 0001572 267.8386  92.2285 15.27561643168434","mean_motion":15.27561643,"eccentricity":0.0001572,"inclination_deg":43.0014,"raan_deg":129.0308,"arg_perigee_deg":267.8386,"mean_anomaly_deg":92.2285,"bstar":0.00012162,"rev_number":16843,"period_min":94.267881535174,"perigee_km":482.02547695674,"apogee_km":484.18265114728,"semimajor_km":6861.241064052,"source":"CELESTRAK","updated_at":"2026-05-25T13:38:18.078053Z"}}